EW8485 Weather Reports


Display with metric or nautical units.
time (UTC)temp
F
wind
direction
speed
MPH
gust
MPH
rain 1hr
in
rain 24hr
in
rain mn
in
humidity
%
barometer
mb
20260504050453 60 123 0.0 0.0 0.00 0.00 0.00 79 1014.7
20260504050225 60 123 0.0 0.0 0.00 0.00 0.00 79 1014.6
20260504045453 60 123 0.0 0.0 0.00 0.00 0.00 78 1014.6
20260504044946 61 123 0.0 0.0 0.00 0.00 0.00 78 1014.7
20260504044446 61 122 0.0 0.0 0.00 0.00 0.00 77 1014.7
20260504043946 61 123 0.0 0.0 0.00 0.00 0.00 77 1014.7
20260504043447 61 123 0.0 0.0 0.00 0.00 0.00 76 1014.7
20260504042947 62 122 0.0 0.0 0.00 0.00 0.00 76 1014.7
20260504042447 62 123 0.0 0.0 0.00 0.00 0.00 76 1014.8
20260504041943 62 123 0.0 0.0 0.00 0.00 0.00 75 1014.9
20260504041714 62 122 0.0 0.0 0.00 0.00 0.00 75 1014.8
20260504040943 62 122 0.0 0.0 0.00 0.00 0.00 75 1014.7
20260504040442 63 123 0.0 0.0 0.00 0.00 0.00 74 1014.7
20260504035943 63 123 0.0 0.0 0.00 0.00 0.00 74 1014.7
20260504035443 64 123 0.0 0.0 0.00 0.00 0.00 73 1014.6
20260504035215 64 123 0.0 0.0 0.00 0.00 0.00 72 1014.6
20260504034713 64 123 0.0 0.0 0.00 0.00 0.00 72 1014.6
20260504033938 65 122 0.0 0.0 0.00 0.00 0.00 71 1014.7
20260504033443 66 123 0.0 4.0 0.00 0.00 0.00 69 1014.8
20260504033438 65 123 0.0 0.0 0.00 0.00 0.00 70 1014.9
20260504032437 66 123 0.0 4.0 0.00 0.00 0.00 69 1014.8
20260504031937 66 113 0.0 0.0 0.00 0.00 0.00 69 1014.7
20260504031705 66 115 0.0 1.0 0.00 0.00 0.00 68 1014.6
20260504030934 66 133 0.0 1.0 0.00 0.00 0.00 68 1014.6
20260504030434 67 161 0.0 2.0 0.00 0.00 0.00 68 1014.6
20260504025932 67 111 0.0 2.0 0.00 0.00 0.00 68 1014.6
20260504025433 67 103 0.0 2.0 0.00 0.00 0.00 68 1014.6
20260504025206 67 117 0.0 3.0 0.00 0.00 0.00 68 1014.6
20260504024703 67 120 0.0 3.0 0.00 0.00 0.00 67 1014.5
20260504023926 67 110 0.0 2.0 0.00 0.00 0.00 67 1014.6
20260504023426 67 129 0.0 1.0 0.00 0.00 0.00 66 1014.5
20260504022927 67 129 0.0 1.0 0.00 0.00 0.00 66 1014.4
20260504022706 67 89 0.0 2.0 0.00 0.00 0.00 65 1014.5
20260504022427 67 134 0.0 1.0 0.00 0.00 0.00 65 1014.5
20260504021426 68 108 0.0 2.0 0.00 0.00 0.00 64 1014.4
20260504020922 68 174 0.0 4.0 0.00 0.00 0.00 64 1014.4
20260504020423 68 142 0.0 4.0 0.00 0.00 0.00 63 1014.3
20260504015921 68 125 0.0 1.0 0.00 0.00 0.00 62 1014.3
20260504015421 68 92 0.0 3.0 0.00 0.00 0.00 62 1014.3
20260504014919 68 141 0.0 3.0 0.00 0.00 0.00 61 1014.3
20260504014419 69 77 0.0 2.0 0.00 0.00 0.00 60 1014.3
20260504013915 69 97 0.0 3.0 0.00 0.00 0.00 60 1014.2
20260504013412 69 105 0.0 3.0 0.00 0.00 0.00 58 1014.2
20260504012909 70 141 0.0 3.0 0.00 0.00 0.00 57 1014.1
20260504012642 70 82 0.0 3.0 0.00 0.00 0.00 57 1014.1
20260504011908 70 90 0.0 4.0 0.00 0.00 0.00 57 1014.2
20260504011641 70 126 0.0 4.0 0.00 0.00 0.00 56 1014.2
20260504010906 71 107 0.0 3.0 0.00 0.00 0.00 56 1014.2
20260504010404 71 149 1.0 7.0 0.00 0.00 0.00 55 1014.3
20260504005904 71 115 1.0 7.0 0.00 0.00 0.00 55 1014.1
20260504005405 72 98 0.0 4.0 0.00 0.00 0.00 54 1014.0
20260504004903 72 73 1.0 4.0 0.00 0.00 0.00 54 1014.2
20260504004635 73 91 0.0 4.0 0.00 0.00 0.00 53 1014.1
20260504003900 73 79 0.0 4.0 0.00 0.00 0.00 52 1014.2
20260504003359 74 134 1.0 5.0 0.00 0.00 0.00 51 1014.2
20260504003133 74 95 0.0 5.0 0.00 0.00 0.00 50 1014.1
20260504002407 75 137 0.0 2.0 0.00 0.00 0.00 50 1014.1
20260504002401 74 107 0.0 2.0 0.00 0.00 0.00 50 1014.1
20260504001357 75 78 0.0 7.0 0.00 0.00 0.00 50 1014.1
20260504000858 74 122 1.0 7.0 0.00 0.00 0.00 49 1014.0
20260504000401 75 136 1.0 6.0 0.00 0.00 0.00 48 1014.0
20260504000124 76 97 1.0 9.0 0.00 0.00 0.00 47 1014.0
20260503235354 77 81 1.0 9.0 0.00 0.00 0.00 46 1014.0
20260503234854 78 79 1.0 5.0 0.00 0.00 0.00 45 1014.1